[[{"header":{"parameterUnit":"m.s-1","parameterCategory":2,"la1":30.2991,"la2":30.254,"lo1":-89.0895,"lo2":-89.0444,"dy":0.0017,"dx":0.0017,"nx":28,"ny":28,"refTime":"2025-11-15T09:00:00:Z","depth":"0","parameterNumber":2,"parameterNumberName":"U-component_of_CURRENTS"},"data":[0,0,0,0,0,0,0,0,0,0,0,0,0,0,0,0,0,0,0,0,0,0,0,0,0,0,0,0,0,0,0,0,0,0,0,0,0,0,0,0,0,0,0,0,0,0,0,0,0,0,0,0,0,0,0,0,0,0,0.4965,0.4966,0,0.4996,0.4996,0.4996,0.4943,0.4942,0.4941,0.494,0.4945,0.4946,0.4947,0,0,0,0,0,0,0,0,0,0,0,0,0,0.4841,0.4843,0.4964,0.4966,0.4967,0.4996,0.4996,0.4996,0.4943,0.4942,0.4941,0.494,0.4944,0.4945,0.4947,0,0,0,0,0,0,0,0,0,0,0,0,0,0.4878,0.4844,0.4964,0.4951,0.495,0.4996,0.4996,0.4995,0.4944,0.4942,0.4941,0.4939,0.4944,0.4945,0.4947,0.4987,0,0,0.4952,0.4952,0,0,0,0,0,0,0,0,0.4876,0.4881,0.4951,0.4952,0.4952,0.4972,0.4955,0.4994,0.4944,0.4937,0.494,0.4938,0.4958,0.4958,0.4956,0.4987,0.4987,0.4952,0.4953,0.4954,0.4954,0,0,0,0,0,0,0,0.4874,0.488,0.4968,0.4953,0.4953,0.4938,0.494,0.4961,0.4948,0.4938,0.4936,0.4954,0.4956,0.4954,0.4956,0.4987,0.4952,0.4953,0.4954,0.4955,0.5062,0.5064,0,0,0,0,0,0,0.489,0.4878,0.4968,0.497,0.4919,0.4942,0.4944,0.496,0.4949,0.4948,0.4955,0.4951,0.4952,0.4954,0.4956,0.4991,0.4954,0.4955,0.4956,0.506,0.5062,0.5064,0,0,0,0,0,0,0.4887,0.4898,0.4966,0.4931,0.494,0.4947,0.4964,0.4961,0.496,0.4964,0.4961,0.4957,0.4951,0.4953,0.4973,0.4991,0.4956,0.4957,0.5058,0.5061,0.5063,0.5068,0,0,0,0,0,0,0.4883,0.4896,0.491,0.4933,0.4943,0.4993,0.4966,0.4963,0.4978,0.4973,0.4965,0.4964,0.495,0.497,0.4974,0.4992,0.4958,0.5055,0.5059,0.5062,0.5066,0.5071,0.5076,0,0,0,0,0,0.4879,0.4904,0.4911,0.4922,0.4963,0.4995,0.4997,0.499,0.498,0.4982,0.4977,0.4964,0.4996,0.4973,0.4977,0.4996,0.5054,0.5058,0.5062,0.5064,0.507,0.5075,0,0,0,0,0,0,0.4861,0.4903,0.491,0.4947,0.4972,0.4989,0.4997,0.5001,0.4999,0.4991,0.4983,0.4982,0.5009,0.5013,0.4988,0.5042,0.5026,0.5031,0.5026,0.5032,0.5037,0.5018,0.496,0,0,0,0,0,0.4869,0.4891,0.4931,0.496,0.4973,0.4988,0.5001,0.5001,0.501,0.5007,0.5003,0.5011,0.5033,0.5038,0.5053,0.5082,0.5097,0.5102,0.5107,0.5111,0.5102,0.5149,0.5157,0.5078,0.5078,0.5078,0,0,0.4873,0.4899,0.4913,0.4957,0.497,0.4988,0.4988,0.5011,0.5019,0.5012,0.5011,0.5029,0.5048,0.5071,0.5085,0.5072,0.5146,0.5116,0.5119,0.5107,0.5154,0.5162,0.5168,0.5081,0.5081,0.508,0,0,0.488,0.4912,0.4925,0.4946,0.498,0.4995,0.5007,0.5027,0.5024,0.5047,0.5045,0.507,0.5095,0.5105,0.5118,0.5167,0.5174,0.5184,0.5184,0.5231,0.5237,0.5242,0.5284,0.5293,0.5181,0.5181,0.5181,0,0.488,0.4906,0.4935,0.4949,0.4971,0.4999,0.5016,0.5025,0.5046,0.5053,0.5046,0.5097,0.511,0.5147,0.5158,0.5175,0.5202,0.5153,0.5234,0.524,0.5245,0.5286,0.5296,0.5182,0.5182,0.5182,0.5182,0,0.4891,0.4911,0.4922,0.4948,0.4976,0.4997,0.5028,0.5043,0.5056,0.5064,0.5101,0.5122,0.5146,0.5169,0.5174,0.5226,0.5234,0.5236,0.521,0.5253,0.5294,0.5304,0.5183,0.5183,0.5182,0.5182,0,0,0.4872,0.492,0.4918,0.4923,0.4976,0.4991,0.5027,0.5061,0.5061,0.5095,0.5104,0.5157,0.5164,0.5181,0.5201,0.5239,0.5306,0.525,0.5252,0.5274,0.5412,0.5371,0.5378,0.5322,0.5324,0.5325,0.5429,0,0.4863,0.4885,0.4921,0.4934,0.4946,0.4993,0.5014,0.5048,0.5072,0.5081,0.5128,0.5145,0.517,0.518,0.5227,0.5279,0.5331,0.5278,0.5381,0.5384,0.5328,0.5388,0.5159,0.5228,0.5439,0.544,0.5441,0,0.4845,0.4863,0.4881,0.4913,0.4922,0.4934,0.4972,0.4995,0.5037,0.5057,0.5099,0.5123,0.5185,0.5198,0.5318,0.5283,0.5351,0.5397,0.5402,0.5362,0.5361,0.522,0.5238,0.5019,0.5457,0.5456,0.5454,0,0.479,0.4826,0.4838,0.4849,0.4896,0.4906,0.4932,0.4976,0.4987,0.5036,0.5043,0.5123,0.515,0.5252,0.5355,0.534,0.5486,0.5478,0.5513,0.5511,0.5334,0.5313,0.5131,0.5579,0.5578,0.5578,0.5578,0,0.4757,0.4754,0.4801,0.4796,0.4792,0.4847,0.4842,0.4884,0.4925,0.4928,0.501,0.5037,0.5165,0.5259,0.536,0.5467,0.5501,0.5521,0.5537,0.5333,0.5312,0.5127,0.5051,0.5582,0.5581,0.558,0.558,0,0.4684,0.4721,0.4718,0.4755,0.4761,0.4751,0.4784,0.4775,0.4834,0.4844,0.4863,0.498,0.5113,0.5248,0.5415,0.5457,0.5412,0.5615,0.5365,0.535,0.5143,0.5078,0.4883,0.4765,0.5645,0.5645,0.5644,0,0.4646,0.4642,0.4668,0.4654,0.4661,0.466,0.4654,0.472,0.4714,0.4811,0.4804,0.4947,0.5029,0.5256,0.5395,0.5563,0.5396,0.5406,0.5335,0.5098,0.5039,0.4904,0.4808,0.5112,0.5108,0.5104,0.5101,0,0.4559,0.4573,0.4577,0.4562,0.4544,0.452,0.4517,0.4504,0.4576,0.4612,0.468,0.4765,0.4999,0.5057,0.5269,0.5352,0.5094,0.5334,0.5136,0.4645,0.4435,0.4339,0.5086,0.5067,0.507,0.5073,0.5075,0.5076,0.4482,0.4464,0.4469,0.4442,0.4425,0.4355,0.428,0.43,0.4296,0.4286,0.4503,0.4527,0.4663,0.4946,0.5031,0.4884,0.4952,0.4694,0.4653,0.4554,0.4352,0.5035,0.5007,0.501,0.5012,0.5015,0.5016,0,0.4358,0.4351,0.434,0.4283,0.4209,0.4233,0.4159,0.4054,0.3992,0.4069,0.4136,0.4147,0.4191,0.4289,0.4293,0.4178,0.4081,0.4014,0.3714,0.3676,0.4303,0.4188,0.3918,0.3919,0.3919,0.3919,0.3919,0.392,0.4278,0.4228,0.4227,0.4071,0.4022,0.3832,0.3746,0.3641,0.3621,0.3512,0.3453,0.3537,0.3632,0.3661,0.351,0.3467,0.3227,0.3106,0.3143,0.3498,0.3555,0.3609,0.3477,0.3063,0.3062,0.2361,0.2355,0.2351]},{"header":{"parameterUnit":"m.s-1","parameterCategory":2,"la1":30.2991,"la2":30.254,"lo1":-89.0895,"lo2":-89.0444,"dy":0.0017,"dx":0.0017,"nx":28,"ny":28,"refTime":"2025-11-15T09:00:00:Z","depth":"0","parameterNumber":3,"parameterNumberName":"V-component_of_CURRENTS"},"data":[0,0,0,0,0,0,0,0,0,0,0,0,0,0,0,0,0,0,0,0,0,0,0,0,0,0,0,0,0,0,0,0,0,0,0,0,0,0,0,0,0,0,0,0,0,0,0,0,0,0,0,0,0,0,0,0,0,0,-0.0198,-0.0199,0,-0.0238,-0.0238,-0.0239,-0.024,-0.024,-0.024,-0.0239,-0.0316,-0.0318,-0.0321,0,0,0,0,0,0,0,0,0,0,0,0,0,-0.0155,-0.0156,-0.0198,-0.0199,-0.0199,-0.0238,-0.0238,-0.0239,-0.024,-0.024,-0.0239,-0.0239,-0.0315,-0.0318,-0.0321,0,0,0,0,0,0,0,0,0,0,0,0,0,-0.0181,-0.0156,-0.0198,-0.0205,-0.0207,-0.0238,-0.0238,-0.0239,-0.024,-0.024,-0.0239,-0.0239,-0.0314,-0.0318,-0.0321,-0.0355,0,0,-0.0332,-0.0334,0,0,0,0,0,0,0,0,-0.018,-0.0183,-0.0204,-0.0205,-0.0206,-0.0234,-0.0251,-0.028,-0.0241,-0.0227,-0.0239,-0.0239,-0.0293,-0.0298,-0.0305,-0.0358,-0.0362,-0.0333,-0.0335,-0.0336,-0.0337,0,0,0,0,0,0,0,-0.0178,-0.0181,-0.0213,-0.0205,-0.0206,-0.0218,-0.022,-0.0257,-0.0263,-0.0228,-0.0228,-0.0234,-0.0294,-0.0302,-0.0307,-0.0363,-0.0332,-0.0336,-0.0338,-0.0339,-0.0431,-0.0431,0,0,0,0,0,0,-0.0174,-0.0179,-0.0212,-0.0214,-0.0192,-0.0219,-0.0222,-0.0225,-0.0261,-0.0266,-0.0235,-0.0234,-0.0296,-0.0303,-0.031,-0.0337,-0.0336,-0.034,-0.0342,-0.043,-0.0431,-0.0431,0,0,0,0,0,0,-0.0173,-0.0176,-0.021,-0.0198,-0.0204,-0.022,-0.0224,-0.0226,-0.0233,-0.0266,-0.0272,-0.024,-0.0296,-0.0305,-0.0336,-0.0341,-0.0341,-0.0345,-0.043,-0.043,-0.0431,-0.0402,0,0,0,0,0,0,-0.0171,-0.0176,-0.0178,-0.0198,-0.0204,-0.0229,-0.0225,-0.0227,-0.0239,-0.0238,-0.0273,-0.0279,-0.0296,-0.033,-0.0339,-0.0346,-0.0347,-0.043,-0.043,-0.0431,-0.0403,-0.0401,-0.04,0,0,0,0,0,-0.017,-0.0178,-0.0178,-0.0182,-0.0206,-0.023,-0.0234,-0.0243,-0.0239,-0.0246,-0.0262,-0.0278,-0.034,-0.0333,-0.0344,-0.0352,-0.0429,-0.043,-0.0431,-0.0403,-0.0402,-0.04,0,0,0,0,0,0,-0.0165,-0.018,-0.018,-0.0193,-0.0209,-0.023,-0.0241,-0.0245,-0.0263,-0.0263,-0.0286,-0.0294,-0.0321,-0.0343,-0.0336,-0.0379,-0.0386,-0.0389,-0.0362,-0.0361,-0.0359,-0.0332,-0.035,0,0,0,0,0,-0.0164,-0.0171,-0.0189,-0.02,-0.0208,-0.0224,-0.0234,-0.024,-0.0259,-0.0265,-0.0287,-0.0311,-0.0334,-0.0351,-0.0377,-0.0407,-0.04,-0.0418,-0.0417,-0.0416,-0.0401,-0.0396,-0.0393,-0.0433,-0.0433,-0.0433,0,0,-0.0166,-0.0175,-0.018,-0.0199,-0.0212,-0.0221,-0.0228,-0.0246,-0.0248,-0.0274,-0.0288,-0.0311,-0.0341,-0.0366,-0.038,-0.0384,-0.0401,-0.0417,-0.0415,-0.0401,-0.0396,-0.0392,-0.0389,-0.0433,-0.0433,-0.0433,0,0,-0.0176,-0.0182,-0.0191,-0.0199,-0.0218,-0.0226,-0.023,-0.0251,-0.0255,-0.0276,-0.0287,-0.0306,-0.0353,-0.0363,-0.0377,-0.0388,-0.0394,-0.0406,-0.0381,-0.0377,-0.0373,-0.037,-0.0348,-0.0343,-0.0407,-0.0407,-0.0407,0,-0.0179,-0.0184,-0.0199,-0.0206,-0.0207,-0.0225,-0.0227,-0.0239,-0.0264,-0.0261,-0.0277,-0.0313,-0.0346,-0.0354,-0.0359,-0.0384,-0.0376,-0.0383,-0.0373,-0.037,-0.0367,-0.0346,-0.034,-0.0405,-0.0405,-0.0406,-0.0406,0,-0.0192,-0.019,-0.0198,-0.0204,-0.021,-0.0218,-0.0229,-0.0235,-0.0243,-0.0247,-0.0259,-0.0295,-0.031,-0.0331,-0.0353,-0.0349,-0.0348,-0.037,-0.0371,-0.036,-0.034,-0.0334,-0.0403,-0.0404,-0.0404,-0.0405,0,0,-0.0211,-0.0206,-0.0207,-0.0192,-0.0203,-0.0206,-0.0209,-0.0208,-0.0188,-0.0222,-0.0198,-0.0251,-0.026,-0.0275,-0.0304,-0.0307,-0.0287,-0.0329,-0.033,-0.0296,-0.0261,-0.0239,-0.0231,-0.0308,-0.0307,-0.0307,-0.0252,0,-0.0214,-0.0208,-0.0208,-0.0192,-0.0185,-0.0186,-0.0176,-0.0174,-0.0176,-0.0159,-0.0188,-0.0186,-0.0242,-0.0244,-0.0258,-0.0276,-0.0274,-0.0299,-0.0286,-0.0285,-0.0258,-0.0224,-0.0181,-0.0127,-0.0247,-0.0246,-0.0246,0,-0.0223,-0.0212,-0.0196,-0.0157,-0.0154,-0.0145,-0.0112,-0.0107,-0.0091,-0.009,-0.0096,-0.0111,-0.0122,-0.017,-0.0188,-0.0202,-0.0228,-0.0244,-0.0243,-0.0224,-0.0253,-0.0161,-0.0114,-0.0287,-0.0238,-0.0238,-0.0239,0,-0.0214,-0.0197,-0.0175,-0.0167,-0.0138,-0.0121,-0.0105,-0.0084,-0.0056,-0.0042,-0.0009,-0.0036,-0.0023,-0.0072,-0.0112,-0.0152,-0.011,-0.0172,-0.017,-0.0169,-0.0129,-0.0125,-0.0236,-0.0175,-0.0175,-0.0175,-0.0175,0,-0.0208,-0.0187,-0.0165,-0.0149,-0.0105,-0.0096,-0.0044,-0.0033,0.0008,0.0081,0.0029,0.0095,0.0003,0.0014,-0.006,-0.0075,-0.007,-0.0143,-0.0148,-0.0118,-0.0114,-0.0262,-0.0372,-0.0173,-0.0173,-0.0174,-0.0174,0,-0.0193,-0.0186,-0.0151,-0.0114,-0.0098,-0.0066,-0.0003,0.0044,0.007,0.0167,0.018,0.0205,0.0235,0.016,0.012,0.0021,-0.0084,-0.0026,0.0027,0.0027,-0.0172,-0.028,-0.0331,-0.0377,-0.0033,-0.0032,-0.0031,0,-0.0181,-0.0165,-0.0122,-0.009,-0.007,-0.0021,0.0028,0.0065,0.0133,0.0263,0.0331,0.0387,0.0493,0.0434,0.0282,0.0185,0.0011,0.0099,0.0014,-0.0157,-0.0282,-0.0342,-0.0382,0.0081,0.0083,0.0084,0.0085,0,-0.0147,-0.0138,-0.0106,-0.0045,0.0006,0.0073,0.0151,0.0229,0.0321,0.0455,0.0656,0.076,0.0712,0.0679,0.0498,0.0371,-0.0011,0.0122,-0.007,-0.0206,-0.026,-0.0314,0.0019,0.0097,0.0096,0.0095,0.0095,0.0094,-0.0115,-0.0087,-0.0044,0.0018,0.0084,0.0198,0.0318,0.0457,0.065,0.0958,0.0963,0.1238,0.1019,0.0809,0.0575,0.0122,0.0108,-0.0025,-0.0139,-0.0179,-0.0243,0.0126,0.0198,0.0198,0.0197,0.0197,0.0196,0,-0.0064,-0.0033,0.0024,0.0121,0.0232,0.0248,0.0436,0.0629,0.0958,0.125,0.1507,0.1587,0.1304,0.0897,0.0287,-0.0062,-0.0209,-0.0285,-0.0391,-0.0419,-0.0095,-0.0113,-0.0088,-0.0088,-0.0088,-0.0087,-0.0087,-0.0087,-0.0031,0.0027,0.0054,0.0241,0.0336,0.0562,0.0713,0.1029,0.1302,0.1776,0.2015,0.2116,0.1728,0.0571,-0.022,-0.0411,-0.0674,-0.0697,-0.084,-0.0683,-0.0669,-0.0656,-0.0701,-0.0798,-0.0799,-0.1086,-0.109,-0.1093]}],[{"header":{"parameterUnit":"m.s-1","parameterCategory":2,"la1":30.2991,"la2":30.254,"lo1":-89.0895,"lo2":-89.0444,"dy":0.0017,"dx":0.0017,"nx":28,"ny":28,"refTime":"2025-11-15T09:00:00:Z","depth":"2","parameterNumber":2,"parameterNumberName":"U-component_of_CURRENTS"},"data":[0,0,0,0,0,0,0,0,0,0,0,0,0,0,0,0,0,0,0,0,0,0,0,0,0,0,0,0,0,0,0,0,0,0,0,0,0,0,0,0,0,0,0,0,0,0,0,0,0,0,0,0,0,0,0,0,0,0,0.1895,0.1896,0,0.1927,0.1927,0.1927,0.1972,0.1973,0.1974,0.1975,0.1989,0.1989,0.1989,0,0,0,0,0,0,0,0,0,0,0,0,0,0.1929,0.1928,0.1895,0.1896,0.1896,0.1927,0.1927,0.1928,0.1972,0.1973,0.1974,0.1975,0.199,0.1989,0.1989,0,0,0,0,0,0,0,0,0,0,0,0,0,0.1931,0.1927,0.1895,0.1923,0.1926,0.1927,0.1927,0.1928,0.1972,0.1973,0.1974,0.1976,0.199,0.1989,0.1988,0.1957,0,0,0.1986,0.1986,0,0,0,0,0,0,0,0,0.1931,0.1929,0.1919,0.1921,0.1925,0.1948,0.1945,0.1937,0.1971,0.1953,0.1975,0.1976,0.1974,0.1975,0.1976,0.1958,0.1958,0.1986,0.1986,0.1986,0.1985,0,0,0,0,0,0,0,0.1931,0.1929,0.1906,0.1919,0.1923,0.1954,0.1955,0.1944,0.1954,0.1954,0.1958,0.1964,0.1976,0.1976,0.1976,0.1958,0.1986,0.1986,0.1985,0.1985,0.2039,0.204,0,0,0,0,0,0,0.1925,0.1928,0.1905,0.1907,0.1933,0.1952,0.1953,0.1938,0.1954,0.1959,0.1963,0.1966,0.1977,0.1977,0.1977,0.2049,0.1986,0.1985,0.1985,0.2037,0.2039,0.2041,0,0,0,0,0,0,0.1925,0.1922,0.1904,0.1921,0.1922,0.195,0.1933,0.1938,0.1975,0.1961,0.1965,0.1999,0.1978,0.1978,0.2008,0.2046,0.1985,0.1984,0.2035,0.2038,0.204,0.2123,0,0,0,0,0,0,0.1926,0.1921,0.1924,0.192,0.192,0.1919,0.1932,0.1938,0.1975,0.1981,0.1992,0.1993,0.1979,0.201,0.2008,0.2044,0.1983,0.2032,0.2036,0.2039,0.2118,0.2128,0.2137,0,0,0,0,0,0.1926,0.1912,0.1924,0.1922,0.1917,0.192,0.1923,0.1947,0.1976,0.1988,0.2014,0.1995,0.203,0.201,0.2008,0.2044,0.2031,0.2035,0.2039,0.2114,0.2126,0.2137,0,0,0,0,0,0,0.1936,0.1916,0.1928,0.1912,0.1927,0.1928,0.1945,0.1967,0.1996,0.2014,0.2011,0.2013,0.2053,0.2038,0.2016,0.2072,0.203,0.2034,0.2088,0.2099,0.2109,0.2145,0.1983,0,0,0,0,0,0.1937,0.1916,0.192,0.1912,0.1922,0.1944,0.1958,0.1975,0.1993,0.201,0.2023,0.2042,0.206,0.2074,0.2075,0.21,0.2152,0.2125,0.2135,0.2143,0.2173,0.2295,0.2319,0.2055,0.2055,0.2055,0,0,0.1937,0.1927,0.1917,0.1914,0.193,0.1948,0.1956,0.1979,0.2012,0.2003,0.2059,0.2071,0.2074,0.2109,0.2126,0.2107,0.2247,0.2148,0.2155,0.2181,0.2302,0.2328,0.2351,0.2057,0.2057,0.2056,0,0,0.1927,0.1925,0.1913,0.1928,0.1954,0.1967,0.1984,0.2009,0.2041,0.2074,0.2099,0.215,0.2147,0.2186,0.2197,0.2262,0.2291,0.2254,0.2336,0.2454,0.2478,0.2499,0.2607,0.2637,0.2263,0.2263,0.2263,0,0.1939,0.1925,0.1916,0.1926,0.1958,0.1983,0.2013,0.2035,0.2074,0.2128,0.2099,0.2196,0.2189,0.2286,0.2308,0.2286,0.2359,0.2289,0.247,0.2492,0.2513,0.2618,0.2651,0.2267,0.2267,0.2266,0.2266,0,0.1921,0.1936,0.1938,0.1958,0.1987,0.2014,0.2051,0.2104,0.2142,0.218,0.228,0.2287,0.236,0.2358,0.2345,0.2496,0.2502,0.2467,0.2445,0.2545,0.2649,0.2681,0.2274,0.2272,0.2271,0.227,0,0,0.1885,0.192,0.1927,0.1964,0.2017,0.2037,0.2113,0.2199,0.228,0.2317,0.2428,0.2469,0.251,0.2529,0.2541,0.2633,0.2823,0.262,0.2624,0.2736,0.3106,0.2905,0.292,0.2832,0.2838,0.2842,0.3123,0,0.1892,0.192,0.1943,0.2008,0.2039,0.2113,0.2182,0.2269,0.2336,0.244,0.2508,0.2583,0.2563,0.2604,0.2708,0.2792,0.2913,0.2752,0.2985,0.2992,0.2809,0.2952,0.2672,0.288,0.3155,0.316,0.3164,0,0.187,0.1902,0.1959,0.2061,0.2086,0.2135,0.229,0.2353,0.2507,0.2564,0.2688,0.2726,0.2887,0.2818,0.3083,0.299,0.3074,0.3126,0.3138,0.2947,0.2851,0.2823,0.2928,0.3218,0.3214,0.321,0.3206,0,0.184,0.1917,0.1972,0.2002,0.2112,0.2185,0.2259,0.2407,0.2482,0.2656,0.2729,0.2913,0.3005,0.3156,0.3262,0.3204,0.353,0.3455,0.337,0.3358,0.3161,0.3118,0.3666,0.3665,0.3665,0.3664,0.3663,0,0.1822,0.1869,0.1967,0.1994,0.2091,0.2179,0.2302,0.2405,0.2557,0.2677,0.2795,0.2921,0.3097,0.3273,0.3359,0.3476,0.363,0.3432,0.3431,0.3175,0.3133,0.344,0.341,0.3674,0.3672,0.367,0.3668,0,0.1762,0.1826,0.1892,0.2021,0.2068,0.2135,0.2288,0.2367,0.2532,0.2694,0.2751,0.2984,0.3236,0.3389,0.3646,0.3578,0.3703,0.3705,0.3378,0.3328,0.3436,0.3407,0.3655,0.3651,0.3647,0.3644,0.3641,0,0.1728,0.1754,0.1883,0.1921,0.1978,0.2091,0.2161,0.2331,0.2421,0.2734,0.2805,0.309,0.3245,0.3517,0.3504,0.362,0.3754,0.3377,0.3175,0.3469,0.3444,0.342,0.3397,0.2984,0.2976,0.297,0.2965,0,0.1664,0.1714,0.1763,0.1845,0.1918,0.2,0.2125,0.2204,0.2439,0.2617,0.2878,0.3021,0.3216,0.3181,0.325,0.3271,0.3314,0.324,0.3728,0.2966,0.2841,0.2812,0.2813,0.2908,0.2914,0.2918,0.2921,0.2923,0.1613,0.1626,0.1694,0.1771,0.184,0.1922,0.202,0.2138,0.2323,0.255,0.2756,0.2871,0.2878,0.2818,0.2802,0.2787,0.298,0.2857,0.2877,0.2904,0.2712,0.2579,0.2565,0.2569,0.2572,0.2575,0.2577,0,0.1548,0.1578,0.1619,0.1705,0.1752,0.1856,0.2004,0.2073,0.2276,0.2376,0.2537,0.2352,0.23,0.2403,0.2228,0.216,0.2147,0.2147,0.2128,0.2185,0.2236,0.2009,0.1678,0.1676,0.1673,0.1671,0,0,0.1514,0.1517,0.1544,0.1606,0.1708,0.1835,0.1958,0.1993,0.2054,0.2085,0.2088,0.2145,0.2248,0.1899,0.186,0.1763,0.1968,0.1705,0.2425,0.2458,0.2505,0.264,0.2353,0,0,0,0,0]},{"header":{"parameterUnit":"m.s-1","parameterCategory":2,"la1":30.2991,"la2":30.254,"lo1":-89.0895,"lo2":-89.0444,"dy":0.0017,"dx":0.0017,"nx":28,"ny":28,"refTime":"2025-11-15T09:00:00:Z","depth":"2","parameterNumber":3,"parameterNumberName":"V-component_of_CURRENTS"},"data":[0,0,0,0,0,0,0,0,0,0,0,0,0,0,0,0,0,0,0,0,0,0,0,0,0,0,0,0,0,0,0,0,0,0,0,0,0,0,0,0,0,0,0,0,0,0,0,0,0,0,0,0,0,0,0,0,0,0,0.0317,0.0315,0,0.0166,0.0164,0.0162,0.0028,0.0027,0.0025,0.0024,-0.0147,-0.015,-0.0153,0,0,0,0,0,0,0,0,0,0,0,0,0,0.0389,0.0389,0.0317,0.0315,0.0314,0.0167,0.0164,0.0162,0.0028,0.0027,0.0025,0.0024,-0.0146,-0.015,-0.0154,0,0,0,0,0,0,0,0,0,0,0,0,0,0.0307,0.0389,0.0317,0.0232,0.0223,0.0167,0.0164,0.0161,0.0029,0.0027,0.0025,0.0023,-0.0144,-0.0149,-0.0154,-0.0146,0,0,-0.0169,-0.0172,0,0,0,0,0,0,0,0,0.0312,0.0304,0.0246,0.0237,0.0227,0.0117,0.0127,0.0058,0.0029,0.0099,0.0024,0.0022,-0.0057,-0.0069,-0.0098,-0.0154,-0.0162,-0.017,-0.0173,-0.0175,-0.0177,0,0,0,0,0,0,0,0.0318,0.031,0.0254,0.0244,0.0233,0.0167,0.0154,0.0113,0.0031,0.0093,0.0083,0.0072,-0.0063,-0.0092,-0.0102,-0.0164,-0.017,-0.0174,-0.0177,-0.0179,-0.026,-0.026,0,0,0,0,0,0,0.0351,0.0316,0.0259,0.025,0.0269,0.0168,0.0153,0.0152,0.0031,0.0012,0.0074,0.0067,-0.0083,-0.0096,-0.0109,-0.0108,-0.0175,-0.018,-0.0183,-0.0261,-0.026,-0.0259,0,0,0,0,0,0,0.0353,0.0348,0.0265,0.0281,0.0266,0.017,0.0169,0.015,0.0116,0.0018,-0.0003,0.006,-0.0085,-0.0102,-0.015,-0.0116,-0.0182,-0.0187,-0.0262,-0.0261,-0.026,-0.0106,0,0,0,0,0,0,0.0356,0.035,0.0353,0.0284,0.0267,0.0254,0.017,0.0148,0.0114,0.0102,-0.0,-0.0019,-0.0088,-0.0142,-0.0155,-0.0124,-0.0191,-0.0263,-0.0262,-0.026,-0.0112,-0.0099,-0.0088,0,0,0,0,0,0.0359,0.0386,0.0355,0.0347,0.0278,0.0256,0.0242,0.0163,0.0116,0.0121,0.0035,-0.0016,-0.0141,-0.0145,-0.0161,-0.013,-0.0264,-0.0262,-0.026,-0.0117,-0.0102,-0.0089,0,0,0,0,0,0,0.0421,0.0373,0.0337,0.0348,0.0312,0.0235,0.0231,0.0177,0.0113,0.0093,-0.0006,-0.0029,-0.006,-0.0116,-0.0118,-0.0151,-0.021,-0.0211,-0.0095,-0.0082,-0.007,-0.0034,-0.0195,0,0,0,0,0,0.044,0.0443,0.039,0.0398,0.039,0.0312,0.0288,0.0238,0.0175,0.0143,0.0069,-0.0008,-0.0061,-0.0088,-0.0148,-0.0158,-0.0187,-0.015,-0.0138,-0.0127,-0.011,-0.0123,-0.0109,-0.0253,-0.0253,-0.0253,0,0,0.046,0.0439,0.0435,0.041,0.0373,0.0376,0.0293,0.0274,0.0264,0.0138,0.0104,0.003,-0.0058,-0.0081,-0.0098,-0.0123,-0.0099,-0.0125,-0.0115,-0.0103,-0.0119,-0.0105,-0.0092,-0.0252,-0.0252,-0.0252,0,0,0.0518,0.0495,0.0517,0.0503,0.0466,0.0425,0.043,0.0362,0.0323,0.0282,0.019,0.0145,0.0052,0.001,-0.0028,0.0019,-0.0041,-0.0008,0.0088,0.0077,0.0089,0.01,0.01,0.0109,0.0004,0.0005,0.0005,0,0.0538,0.0565,0.0522,0.0546,0.0545,0.0461,0.049,0.0447,0.0365,0.0361,0.0289,0.018,0.0102,0.0096,0.0094,0.0051,0.0029,0.0047,0.0096,0.0105,0.0113,0.0111,0.0119,0.0012,0.0011,0.0011,0.001,0,0.0615,0.0631,0.0654,0.0653,0.065,0.0665,0.0614,0.06,0.0536,0.0492,0.0461,0.0345,0.0281,0.0255,0.0177,0.0205,0.0167,0.0112,0.0071,0.0138,0.013,0.0136,0.0023,0.0021,0.0018,0.0016,0,0,0.0672,0.0699,0.0704,0.0734,0.0711,0.0726,0.0731,0.0732,0.0755,0.0658,0.0678,0.0569,0.05,0.0453,0.0361,0.0347,0.0376,0.0257,0.0253,0.0277,0.036,0.0255,0.025,0.0326,0.0327,0.0328,0.0339,0,0.0741,0.0817,0.0807,0.0878,0.092,0.0876,0.0902,0.0889,0.0846,0.0843,0.0744,0.0703,0.0577,0.0535,0.0506,0.0403,0.0395,0.0379,0.0273,0.0271,0.0185,0.0254,0.0213,0.0211,0.0344,0.0345,0.0346,0,0.0821,0.0865,0.0947,0.1017,0.1034,0.1052,0.1101,0.111,0.1091,0.1055,0.1002,0.0901,0.0847,0.0716,0.0615,0.0606,0.0497,0.0421,0.0419,0.027,0.0176,0.0158,0.0216,0.0355,0.0354,0.0354,0.0353,0,0.0899,0.0971,0.1045,0.1063,0.1116,0.1146,0.1165,0.1174,0.1194,0.1171,0.1166,0.1089,0.1022,0.0901,0.0701,0.0659,0.0598,0.0519,0.0339,0.0331,0.0249,0.023,0.0465,0.0465,0.0465,0.0465,0.0465,0,0.0988,0.1049,0.1083,0.1126,0.1229,0.123,0.1321,0.1325,0.1327,0.1378,0.126,0.1269,0.1058,0.097,0.0793,0.0592,0.0666,0.0378,0.033,0.03,0.0286,0.036,0.0348,0.0466,0.0466,0.0465,0.0465,0,0.1057,0.1078,0.1174,0.1241,0.1265,0.1331,0.1391,0.1464,0.144,0.1489,0.1471,0.1403,0.1312,0.1111,0.0933,0.07,0.0528,0.0435,0.0415,0.0362,0.0251,0.0246,0.0249,0.0246,0.0243,0.024,0.0238,0,0.1093,0.1148,0.1249,0.1311,0.1335,0.1421,0.1498,0.1509,0.1547,0.1582,0.1602,0.1541,0.1507,0.1216,0.0838,0.0536,0.0546,0.0263,0.0153,0.0278,0.0231,0.0231,0.0231,0.0126,0.0123,0.012,0.0118,0,0.1164,0.1193,0.1273,0.1401,0.1485,0.1592,0.1656,0.1679,0.1705,0.1757,0.1812,0.1804,0.1511,0.1172,0.0715,0.0501,0.0301,0.0199,0.0371,0.0162,0.0154,0.011,0.0115,0.0098,0.01,0.0101,0.0102,0.0103,0.1202,0.1274,0.1374,0.1502,0.159,0.1684,0.175,0.1829,0.1907,0.1899,0.1915,0.1847,0.148,0.0839,0.0521,0.0146,0.0154,-0.0024,-0.0013,-0.0001,-0.0042,-0.0058,-0.0159,-0.0158,-0.0158,-0.0157,-0.0157,0,0.1252,0.1337,0.147,0.1595,0.168,0.1704,0.1812,0.1881,0.1971,0.1951,0.1958,0.1551,0.1165,0.0826,0.0195,-0.0173,-0.016,-0.0222,-0.0144,-0.0125,-0.0108,-0.015,-0.0297,-0.0298,-0.0298,-0.0298,0,0,0.128,0.1415,0.1501,0.1636,0.1675,0.1765,0.1799,0.1933,0.1951,0.1921,0.1792,0.1594,0.117,0.069,0.0272,-0.0015,0.002,-0.0059,0.0068,0.0224,0.0247,-0.0001,-0.0047,0,0,0,0,0]}],[{"header":{"parameterUnit":"m.s-1","parameterCategory":2,"la1":30.2991,"la2":30.254,"lo1":-89.0895,"lo2":-89.0444,"dy":0.0017,"dx":0.0017,"nx":28,"ny":28,"refTime":"2025-11-15T09:00:00:Z","depth":"4","parameterNumber":2,"parameterNumberName":"U-component_of_CURRENTS"},"data":[0,0,0,0,0,0,0,0,0,0,0,0,0,0,0,0,0,0,0,0,0,0,0,0,0,0,0,0,0,0,0,0,0,0,0,0,0,0,0,0,0,0,0,0,0,0,0,0,0,0,0,0,0,0,0,0,0,0,0.0647,0.0648,0,0.0688,0.0687,0.0687,0.0689,0.069,0.069,0.069,0.0745,0.0746,0.0747,0,0,0,0,0,0,0,0,0,0,0,0,0,0.0554,0.0555,0.0647,0.0648,0.065,0.0688,0.0687,0.0687,0.0689,0.069,0.069,0.0691,0.0745,0.0746,0.0747,0,0,0,0,0,0,0,0,0,0,0,0,0,0.0585,0.0555,0.0647,0.0663,0.0666,0.0688,0.0687,0.0687,0.0689,0.069,0.069,0.0691,0.0744,0.0746,0.0747,0.0742,0,0,0.0752,0.0753,0,0,0,0,0,0,0,0,0.0583,0.0587,0.0659,0.0662,0.0665,0.0693,0.0675,0.071,0.0689,0.0669,0.069,0.0691,0.0735,0.0738,0.0729,0.0745,0.0747,0.0752,0.0753,0.0754,0.0754,0,0,0,0,0,0,0,0.0581,0.0585,0.0652,0.0661,0.0665,0.0664,0.0668,0.0681,0.069,0.0671,0.0674,0.0695,0.0736,0.0727,0.073,0.0748,0.0752,0.0753,0.0754,0.0755,0.0839,0.084,0,0,0,0,0,0,0.0597,0.0583,0.0651,0.0655,0.0637,0.0666,0.067,0.0675,0.0689,0.0695,0.0694,0.0695,0.0724,0.0728,0.0732,0.0813,0.0754,0.0755,0.0756,0.0837,0.0839,0.084,0,0,0,0,0,0,0.0594,0.0602,0.065,0.0629,0.0637,0.0668,0.0673,0.0676,0.0695,0.0709,0.0713,0.0716,0.0725,0.073,0.0759,0.0812,0.0756,0.0757,0.0836,0.0838,0.084,0.092,0,0,0,0,0,0,0.0591,0.06,0.061,0.063,0.0639,0.0675,0.0673,0.0676,0.0711,0.0712,0.0729,0.0732,0.0726,0.0757,0.0761,0.0813,0.0758,0.0834,0.0837,0.0839,0.0916,0.0925,0.0932,0,0,0,0,0,0.0587,0.0608,0.061,0.0619,0.065,0.0677,0.068,0.0698,0.0712,0.0717,0.073,0.0733,0.0776,0.0759,0.0763,0.0817,0.0833,0.0836,0.0839,0.0912,0.0923,0.0932,0,0,0,0,0,0,0.0576,0.0612,0.0614,0.0644,0.0664,0.0682,0.0704,0.0715,0.0727,0.0738,0.0742,0.0746,0.0796,0.0788,0.0769,0.0847,0.0809,0.0813,0.0863,0.0873,0.0882,0.0895,0.0759,0,0,0,0,0,0.0578,0.0601,0.0628,0.0653,0.0668,0.0687,0.0705,0.0716,0.0736,0.0742,0.0759,0.0779,0.0806,0.0824,0.0836,0.0875,0.086,0.0914,0.0922,0.0929,0.0943,0.095,0.096,0.085,0.085,0.085,0,0,0.0581,0.0608,0.0619,0.0652,0.0671,0.0694,0.0698,0.0734,0.0756,0.0748,0.0788,0.0809,0.0821,0.0864,0.0887,0.0869,0.0952,0.0933,0.0939,0.0949,0.0954,0.0964,0.0974,0.0852,0.0852,0.0852,0,0,0.0601,0.0623,0.0644,0.0663,0.0705,0.0718,0.0737,0.0767,0.0783,0.0816,0.0829,0.0876,0.0905,0.093,0.0945,0.1005,0.0994,0.1023,0.1082,0.1089,0.1098,0.1106,0.1098,0.1104,0.1029,0.1029,0.1029,0,0.0599,0.0633,0.0655,0.0681,0.071,0.0735,0.0763,0.0779,0.0814,0.0843,0.0839,0.0921,0.0935,0.1005,0.1035,0.1027,0.1023,0.1045,0.11,0.1108,0.1114,0.1104,0.111,0.1034,0.1033,0.1033,0.1032,0,0.0628,0.0659,0.0682,0.0719,0.0745,0.078,0.0809,0.084,0.0873,0.0899,0.0975,0.0994,0.1047,0.1071,0.1077,0.1153,0.1133,0.1108,0.1076,0.113,0.1116,0.1121,0.104,0.1038,0.1037,0.1036,0,0,0.0614,0.0685,0.0693,0.072,0.0772,0.0797,0.0842,0.0896,0.0942,0.0985,0.106,0.1117,0.115,0.117,0.1194,0.1218,0.1267,0.1201,0.1199,0.1195,0.1282,0.1224,0.1223,0.1258,0.1259,0.126,0.1251,0,0.0629,0.0685,0.072,0.0776,0.0806,0.0848,0.0893,0.0945,0.0987,0.1062,0.1117,0.1197,0.118,0.1238,0.1255,0.1259,0.1285,0.1271,0.1228,0.1227,0.117,0.1228,0.1265,0.1255,0.1256,0.1256,0.1257,0,0.0642,0.0683,0.0737,0.0816,0.0836,0.0878,0.0961,0.1007,0.1105,0.1156,0.1235,0.1272,0.1344,0.1327,0.1335,0.1328,0.1327,0.132,0.1318,0.1242,0.1179,0.1189,0.1265,0.1265,0.1264,0.1264,0.1263,0,0.0617,0.0697,0.0746,0.0769,0.0856,0.0903,0.0964,0.1045,0.1103,0.124,0.1295,0.1361,0.1424,0.1404,0.1385,0.137,0.1387,0.1344,0.129,0.1284,0.1301,0.1293,0.1377,0.1377,0.1377,0.1377,0.1377,0,0.0615,0.0654,0.0747,0.0771,0.085,0.0917,0.1011,0.1081,0.1199,0.1273,0.1355,0.1402,0.1454,0.1457,0.1414,0.1358,0.1394,0.1317,0.1288,0.1334,0.1329,0.1304,0.1296,0.1377,0.1377,0.1377,0.1377,0,0.0569,0.0629,0.0689,0.0796,0.0839,0.0899,0.1044,0.1101,0.1218,0.1315,0.1373,0.1466,0.1458,0.1461,0.1459,0.1398,0.135,0.1338,0.1397,0.1368,0.1232,0.1228,0.1246,0.1244,0.1243,0.1241,0.124,0,0.0551,0.0577,0.0694,0.0739,0.0794,0.0902,0.0972,0.1116,0.1176,0.1309,0.1344,0.1417,0.145,0.138,0.1394,0.1327,0.1322,0.1309,0.1272,0.1254,0.1224,0.1222,0.1221,0.1238,0.1237,0.1237,0.1236,0,0.0511,0.0555,0.0603,0.0694,0.0776,0.0861,0.0972,0.1016,0.1163,0.1266,0.1308,0.1325,0.1342,0.1329,0.1337,0.1271,0.1308,0.1291,0.1293,0.1258,0.1243,0.1215,0.1215,0.1231,0.1232,0.1232,0.1233,0,0.0479,0.0497,0.0566,0.0642,0.0732,0.0788,0.0862,0.0946,0.1033,0.1184,0.1187,0.1238,0.1331,0.13,0.1261,0.1239,0.1203,0.117,0.1178,0.1184,0.1168,0.1141,0.1088,0,0,0,0,0,0.0444,0.0454,0.0514,0.0583,0.0663,0.0714,0.0843,0.0916,0.1048,0.1057,0.1133,0.1136,0.114,0.1166,0.1122,0.1193,0.1184,0.1138,0.1144,0.12,0.1206,0.1194,0,0,0,0,0,0,0.0417,0.0454,0.0482,0.0519,0.0547,0.0625,0.0698,0.0784,0.0814,0.0948,0.0952,0.1065,0.107,0.113,0.1089,0.1098,0.1083,0.1185,0.1183,0.1196,0.1202,0.1207,0.1197,0,0,0,0,0]},{"header":{"parameterUnit":"m.s-1","parameterCategory":2,"la1":30.2991,"la2":30.254,"lo1":-89.0895,"lo2":-89.0444,"dy":0.0017,"dx":0.0017,"nx":28,"ny":28,"refTime":"2025-11-15T09:00:00:Z","depth":"4","parameterNumber":3,"parameterNumberName":"V-component_of_CURRENTS"},"data":[0,0,0,0,0,0,0,0,0,0,0,0,0,0,0,0,0,0,0,0,0,0,0,0,0,0,0,0,0,0,0,0,0,0,0,0,0,0,0,0,0,0,0,0,0,0,0,0,0,0,0,0,0,0,0,0,0,0,0.0431,0.0431,0,0.0405,0.0405,0.0404,0.0411,0.0412,0.0412,0.0413,0.0363,0.0361,0.0359,0,0,0,0,0,0,0,0,0,0,0,0,0,0.0453,0.0453,0.0431,0.0431,0.0431,0.0405,0.0405,0.0404,0.0411,0.0412,0.0412,0.0413,0.0364,0.0361,0.0359,0,0,0,0,0,0,0,0,0,0,0,0,0,0.0437,0.0453,0.0431,0.0431,0.043,0.0405,0.0405,0.0404,0.0411,0.0412,0.0413,0.0413,0.0364,0.0362,0.0359,0.0327,0,0,0.0351,0.035,0,0,0,0,0,0,0,0,0.0438,0.0436,0.0431,0.0431,0.043,0.0412,0.0394,0.0377,0.0411,0.0419,0.0413,0.0414,0.0376,0.0373,0.0367,0.0325,0.0323,0.0351,0.0349,0.0348,0.0347,0,0,0,0,0,0,0,0.0439,0.0437,0.0421,0.0431,0.043,0.042,0.0419,0.0391,0.0393,0.0418,0.0418,0.0415,0.0376,0.0369,0.0366,0.0322,0.0351,0.0348,0.0347,0.0346,0.0261,0.026,0,0,0,0,0,0,0.0443,0.0439,0.0422,0.042,0.0436,0.0419,0.0418,0.0417,0.0394,0.0392,0.0414,0.0415,0.0374,0.0369,0.0364,0.0339,0.0348,0.0345,0.0344,0.0261,0.0261,0.026,0,0,0,0,0,0,0.0444,0.0442,0.0423,0.0429,0.0425,0.0418,0.0417,0.0416,0.0421,0.0392,0.0389,0.0422,0.0374,0.0368,0.0347,0.0337,0.0344,0.0342,0.0262,0.0261,0.026,0.0281,0,0,0,0,0,0,0.0444,0.0442,0.0447,0.0429,0.0425,0.0414,0.0417,0.0415,0.0417,0.0419,0.0396,0.0392,0.0374,0.0351,0.0344,0.0333,0.0339,0.0263,0.0262,0.026,0.0281,0.028,0.028,0,0,0,0,0,0.0445,0.0447,0.0447,0.0445,0.0431,0.0414,0.0411,0.0408,0.0417,0.0417,0.0403,0.0394,0.0338,0.0348,0.034,0.0329,0.0263,0.0262,0.0261,0.0281,0.028,0.028,0,0,0,0,0,0,0.0459,0.0447,0.0447,0.0446,0.0434,0.0415,0.0416,0.0414,0.0404,0.0409,0.0387,0.038,0.0357,0.0338,0.035,0.0299,0.0298,0.0295,0.0316,0.0315,0.0315,0.0314,0.0337,0,0,0,0,0,0.0463,0.0464,0.0448,0.0448,0.0444,0.0432,0.0428,0.0425,0.0412,0.0409,0.0392,0.0369,0.0341,0.0328,0.0301,0.0275,0.0236,0.026,0.026,0.026,0.0253,0.018,0.0172,0.0255,0.0255,0.0255,0,0,0.047,0.0463,0.0464,0.0451,0.0444,0.0438,0.0432,0.0428,0.0423,0.0403,0.0394,0.0369,0.0334,0.0305,0.0292,0.0291,0.0218,0.0258,0.0259,0.0251,0.0178,0.0169,0.0162,0.0254,0.0254,0.0254,0,0,0.0479,0.0476,0.048,0.0472,0.0462,0.045,0.0452,0.0436,0.0431,0.0414,0.0395,0.0363,0.0331,0.0296,0.0275,0.0254,0.022,0.0252,0.0248,0.0178,0.017,0.0163,0.0113,0.0101,0.0251,0.0251,0.0251,0,0.0489,0.0492,0.0478,0.0478,0.0474,0.0458,0.046,0.0445,0.0425,0.0408,0.0416,0.0343,0.0321,0.0266,0.0264,0.0252,0.0216,0.0256,0.0177,0.0169,0.0161,0.0112,0.0098,0.0252,0.0252,0.0252,0.0251,0,0.0497,0.0504,0.0505,0.0501,0.0491,0.0491,0.0468,0.0455,0.0446,0.0424,0.0376,0.0337,0.0291,0.0278,0.0269,0.0202,0.0196,0.0186,0.018,0.0154,0.0104,0.009,0.0253,0.0253,0.0252,0.0252,0,0,0.0511,0.0513,0.0517,0.0524,0.0507,0.0501,0.0481,0.0451,0.0431,0.0401,0.0366,0.0312,0.0286,0.026,0.0232,0.0176,0.01,0.0166,0.0162,0.012,-0.0045,-0.0015,-0.0028,0.0078,0.0075,0.0073,-0.0055,0,0.0526,0.0544,0.0532,0.0543,0.055,0.0522,0.0503,0.047,0.0433,0.0393,0.0336,0.0301,0.028,0.0265,0.0197,0.0123,0.0062,0.0136,-0.0018,-0.0022,0.001,-0.0044,0.0065,-0.0065,-0.0069,-0.0071,-0.0073,0,0.0539,0.0551,0.0574,0.057,0.0568,0.0571,0.053,0.0512,0.0439,0.0412,0.0347,0.0302,0.0217,0.0215,0.0047,0.0097,0.0028,-0.003,-0.0036,-0.0028,-0.002,-0.0039,-0.0099,-0.0097,-0.0095,-0.0093,-0.0092,0,0.0563,0.0577,0.0602,0.0604,0.0594,0.0595,0.0587,0.0523,0.0506,0.0433,0.0398,0.0287,0.0249,0.0121,0.0004,0.002,-0.0174,-0.0171,-0.0216,-0.0214,-0.0209,-0.02,-0.0293,-0.0293,-0.0293,-0.0293,-0.0292,0,0.0579,0.0598,0.0626,0.0641,0.0664,0.064,0.0641,0.0604,0.0554,0.0528,0.0422,0.0366,0.0225,0.0099,-0.0015,-0.0163,-0.02,-0.0234,-0.0255,-0.0195,-0.0183,-0.0218,-0.0208,-0.0297,-0.0296,-0.0295,-0.0295,0,0.0593,0.0613,0.0648,0.0669,0.0683,0.0702,0.0713,0.0697,0.0639,0.0597,0.0583,0.0431,0.0264,0.0102,-0.0092,-0.0168,-0.0318,-0.0354,-0.0274,-0.0286,-0.0306,-0.0293,-0.0434,-0.0434,-0.0434,-0.0435,-0.0435,0,0.0598,0.0624,0.0687,0.0714,0.0733,0.0768,0.0783,0.0761,0.0744,0.0628,0.0604,0.0444,0.0331,0.006,-0.0103,-0.0333,-0.0344,-0.0411,-0.0368,-0.0319,-0.0326,-0.0313,-0.03,-0.0435,-0.0435,-0.0435,-0.0435,0,0.0604,0.0641,0.0671,0.0742,0.0786,0.0819,0.0841,0.0847,0.0802,0.0753,0.0626,0.047,0.0283,0.0078,-0.0088,-0.0253,-0.037,-0.0414,-0.0414,-0.0374,-0.0322,-0.0326,-0.0313,-0.0436,-0.0436,-0.0436,-0.0436,0,0.061,0.0639,0.0694,0.0752,0.081,0.0839,0.0857,0.0839,0.083,0.0723,0.0691,0.0463,0.0359,0.0117,-0.0055,-0.0201,-0.023,-0.0251,-0.026,-0.0261,-0.0164,-0.007,-0.0143,0,0,0,0,0,0.06,0.0633,0.0689,0.0748,0.0805,0.0849,0.0869,0.0874,0.086,0.0793,0.0748,0.0572,0.0307,0.0169,0.0028,-0.0067,-0.0263,-0.0235,-0.0292,-0.044,-0.0439,-0.0351,0,0,0,0,0,0,0.0591,0.0641,0.0682,0.0737,0.0789,0.0843,0.0876,0.0862,0.0823,0.0786,0.0642,0.0571,0.0305,0.0401,0.0038,-0.0014,-0.0061,-0.0364,-0.0366,-0.0441,-0.044,-0.0439,-0.0348,0,0,0,0,0]}]]